Mactan Cebu International Airport
RPVM : now visible

Airfield :











YOU CAN JOIN US ON...

 
LOGIN :

Register | Disclaimer

   EN    FR    IT 

 









Legend :    VFR   Marginal VFR   IFR   Intensive IFR   Very Intensive IFR
Visi :
Ceiling :
>= 8 km
>= 3000ft
5 to 8 km
1000 to 3000 ft
1500m to 5 km
500 to 1000 ft
800 to 1500m
200 to 500 ft
< 800m
< 200 ft
Symbols :   Thunderstorms  Fog  Heavy snow  Heavy precipitations  Wind > 20 kt







- Airport Elevation : 31 ft
- IATA code : CEB


RPVM - Mactan Cebu International

CURRENT METAR :
  • 261200Z VRB01KT 9999 FEW020 BKN100 29/25 Q1009 RMK A2980

EXPIRED METARs :
  • 261100Z 24003KT 9999 FEW020 BKN100 29/25 Q1009 RMK A2977
  • 261000Z 21004KT 9999 FEW020 OVC100 29/26 Q1009 RMK A2977
  • 260900Z 19004KT 9999 FEW020 OVC100 29/26 Q1007 RMK A2974

TAF TAF RPVM
Valid from the 26 at 12:00 until the 27 at 18:00 UTC


261100Z 2612/2718 22008KT 9999 FEW020 BKN100
TEMPO 2612/2618 27012KT 8000 -TSRA FEW018CB FEW020 OVC090
TEMPO 2618/2624 23010KT 9000 -SHRA FEW018CB FEW020 BKN090
RPHI FIR / Asia



MET'MAP, your aeronautical weather chart ! - Copyright ORBIFLY December 2007 - Disclaimer

ORBIFLY MET'MAP TEAM :

Programming & Development : Alexandra Zaïnal
Concept & Development : Baudouin d'Aumeries
Co-Development & Prog : Marc-Olivier Méhu
Technical & hardware support : Manuel Goepfert

Contact : metmap@orbifly.com




SOURCES & CREDITS :

   NOAA       Earth
Advisory